Basrah, Iraq

5:54 AM AST on February 22, 2017 (GMT +0300)
Basrah International

Weather History for ORMM - September, 2013

Change the Weather History Date:

Monday, September 23, 2013

  Actual Average Record
Temperature  
Mean Temperature 88 °F -  
Max Temperature 100 °F - - ()
Min Temperature 77 °F - - ()
Cooling Degree Days 24    
Growing Degree Days 38 (Base 50)    
Moisture  
Dew Point 53 °F    
Average Humidity 32    
Maximum Humidity 51    
Minimum Humidity 18    
Precipitation  
Precipitation 0.00 in - - ()
Sea Level Pressure  
Sea Level Pressure 29.66 in    
Wind  
Wind Speed 8 mph ()    
Max Wind Speed 18 mph    
Max Gust Speed -    
T = Trace of Precipitation, MM = Missing Value Source: Averaged Metar Reports

Daily Weather History Graph

Daily Weather History Graph

Search for Another Location

Airport or City:

Trip Planner

Search our weather history database for the weather conditions in past years. The results will help you decide how hot, cold, wet, or windy it might be!

Date:

Astronomy

Sep. 23, 2013 Rise Set
Actual Time 5:37 AM AST 5:44 PM AST
Civil Twilight 5:13 AM AST 6:08 PM AST
Nautical Twilight 4:45 AM AST 6:36 PM AST
Astronomical Twilight 4:17 AM AST 7:04 PM AST
Moon 8:18 PM AST (9/23) 9:16 AM AST (9/23)
Length of Visible Light 12h 54m
Length of Day
12h 06m
Waning Gibbous, 84% of the Moon is Illuminated
Sep 23
Waning Gibbous
Sep 27
Last Quarter
Oct 5
New
Oct 12
First Quarter
Oct 19
Full

Hourly Weather History & Observations

Time (AST) Temp. Heat Index Dew Point Humidity Pressure Visibility Wind Dir Wind Speed Gust Speed Precip Events Conditions
12:00 AM 80.6 °F - 51.8 °F 37% 29.62 in - WNW 6.9 mph - N/A   Clear
1:00 AM 80.6 °F 80.5 °F 55.4 °F 42% 29.62 in - WNW 9.2 mph - N/A   Clear
2:00 AM 80.6 °F 80.8 °F 57.2 °F 45% 29.62 in - WNW 9.2 mph - N/A   Clear
3:00 AM 78.8 °F - 57.2 °F 47% 29.62 in - WNW 11.5 mph - N/A   Clear
4:00 AM 77.0 °F - 42.8 °F 29% 29.62 in - West 9.2 mph - N/A   Clear
5:00 AM 77.0 °F - 53.6 °F 44% 29.65 in - Calm Calm - N/A   Clear
6:00 AM 78.8 °F - 51.8 °F 39% 29.65 in - Calm Calm - N/A   Clear
7:00 AM 78.8 °F - 59.0 °F 51% 29.68 in - West 4.6 mph - N/A   Clear
8:00 AM 86.0 °F 84.5 °F 55.4 °F 35% 29.68 in - North - - N/A   Clear
9:00 AM 91.4 °F 89.9 °F 57.2 °F 31% 29.71 in - West 13.8 mph - N/A   Clear
10:00 AM 96.8 °F 94.4 °F 53.6 °F 23% 29.71 in - WNW 15.0 mph - N/A   Clear
11:00 AM 100.4 °F - 51.8 °F 20% 29.71 in - WNW 18.4 mph - N/A   Clear
12:00 PM 98.6 °F - 50.0 °F 19% 29.68 in - WNW 18.4 mph - N/A   Clear
1:00 PM 100.4 °F - 50.0 °F 18% 29.68 in - WNW 18.4 mph - N/A   Clear
2:00 PM 100.4 °F - 50.0 °F 18% 29.68 in - WNW 18.4 mph - N/A   Clear
3:00 PM 100.4 °F - 50.0 °F 18% 29.65 in - WNW 16.1 mph - N/A   Clear
4:00 PM - - - N/A% 29.65 in - North - - N/A   Clear
5:00 PM 96.8 °F - 50.0 °F 20% 29.65 in - WNW 13.8 mph - N/A   Clear
6:00 PM - - - N/A% - - West 11.5 mph - N/A   Clear
7:00 PM 86.0 °F - 51.8 °F 31% 29.65 in - West 6.9 mph - N/A   Clear
8:00 PM 84.2 °F - 51.8 °F 33% 29.68 in - West 10.4 mph - N/A   Clear
9:00 PM 84.2 °F 83.0 °F 55.4 °F 37% 29.68 in - WNW 6.9 mph - N/A   Clear
10:00 PM - - - N/A% 29.68 in - Calm Calm - N/A   Clear
11:00 PM - - - N/A% 29.68 in - NW 6.9 mph - N/A   Clear